{"data":{"norad_id":68432,"intl_designator":"2026-067S","name":"NUSAT-53 (JANE GOODALL)","alt_names":[],"object_type":"PAYLOAD","status":"ACTIVE","operator":null,"country":"ARGN","launch_date":"2026-03-30","launch_site_code":"AFWTR","launch_vehicle":null,"mission":null,"orbit_class":"UNKNOWN","rcs_meters":null,"size_class":null,"mass_kg":null,"dimensions":null,"purposes":[],"wikipedia_slug":null,"has_3d_model":false,"image_url":null,"decayed_at":null,"tle_current":{"epoch":"2026-05-25T03:14:35.945664Z","epoch_age_seconds":57213,"freshness":"FRESH","line1":"1 68432U 26067S   26145.13513826  .00004826  00000+0  23865-3 0  9997","line2":"2 68432  97.4543 103.9540 0004371  97.3919 262.7812 15.18290529  8448","mean_motion":15.18290529,"eccentricity":0.0004371,"inclination_deg":97.4543,"raan_deg":103.954,"arg_perigee_deg":97.3919,"mean_anomaly_deg":262.7812,"bstar":0.00023865,"rev_number":844,"period_min":94.843508043776,"perigee_km":507.99559711871,"apogee_km":514.01808666529,"semimajor_km":6889.143841892,"source":"CELESTRAK","updated_at":"2026-05-25T13:38:07.815045Z"}}}